www.pogodaiklimat.ru

Погода и климат >> Архив погоды >> Украина >> Стрелковое


ПОГОДА в Стрелковом

  • Прогноз погоды в Стрелковом
  • Монитор погоды в Стрелковом

АРХИВ ПОГОДЫ в Стрелковом

Время (UTC), дата Ветер
(напр.,м/с)
 
Видим.   Явления Облачность Т
(С)
Тd
(С)
f
(%)
Тe
(С)
Тes
(С)
Комфортность P
(гПа)
Po
(гПа)
Тmin
(С)
Tmax
(С)
R
(мм)
R24
(мм)
S
(см)
06 9.09 В 12 10 км ясно +23.6 +11.0 45 +25 +25 комфорт 1020.7 1020.3 +22.4
09 9.09 В 12 10 км ясно +24.4 +11.6 45 +26 +26 жарко 1020.2 1019.8
12 9.09 В 13 10 км ясно +24.2 +13.1 50 +26 +26 жарко 1019.6 1019.2
18 9.09 В 12 10 км ясно +23.0 +14.1 57 +26 +26 жарко 1018.9 1018.5 +25.0
00 10.09 В 11 10 км ясно +22.7 +12.7 53 +25 +25 комфорт 1018.4 1018.0
03 10.09 В 11 10 км ясно +21.6 +12.8 57 +24 +24 комфорт 1018.2 1017.8
06 10.09 В 12 10 км ясно +22.8 +12.8 53 +26 +26 жарко 1018.7 1018.3 +21.6
09 10.09 В 12 10 км ясно +23.1 +14.2 57 +27 +27 душно 1019.4 1019.0
12 10.09 В 15 10 км ясно +23.4 +11.9 48 +26 +26 жарко 1019.7 1019.3
15 10.09 В 11 10 км ясно +22.7 +11.4 49 +25 +25 комфорт 1020.1 1019.7
18 10.09 В 9 10 км ясно +22.2 +15.5 66 +26 +26 душно 1020.5 1020.1 +23.8
21 10.09 В 7 10 км ясно +22.5 +15.8 66 +27 +27 душно 1020.3 1019.9
00 11.09 В 8 10 км ясно +22.4 +14.8 62 +26 +26 жарко 1020.5 1020.1
03 11.09 В 9 10 км ясно +22.1 +14.2 61 +25 +25 комфорт 1021.6 1021.2
06 11.09 В 10 10 км ясно +23.4 +10.7 45 +26 +26 жарко 1022.5 1022.1 +21.9
12 11.09 В 12 10 км ясно +24.0 +14.3 55 +27 +27 жарко 1023.5 1023.1
15 11.09 В 12 10 км ясно +23.0 +14.7 60 +27 +27 душно 1023.1 1022.7
18 11.09 В 11 10 км ясно +22.6 +15.6 65 +27 +27 душно 1023.4 1023.0 +24.5
21 11.09 В 6 10 км ясно +22.3 +15.6 66 +26 +26 жарко 1023.0 1022.6
00 12.09 СВ 5 10 км ясно +22.0 +17.3 75 +26 +26 душно 1022.9 1022.5
03 12.09 В 7 10 км 1/0
[Ci fib]
+21.6 +15.9 70 +25 +25 комфорт 1023.3 1022.9
06 12.09 В 7 10 км ясно +23.1 +16.3 66 +28 +29 душно 1024.3 1023.9 +21.5
09 12.09 В 7 10 км ясно +23.8 +17.0 66 +28 +31 душно 1024.2 1023.8
12 12.09 В 6 10 км ясно +23.9 +16.7 64 +27 +31 жарко 1024.0 1023.6
15 12.09 В 5 10 км ясно +23.5 +13.9 55 +26 +26 жарко 1023.3 1022.9
18 12.09 В 4 10 км ясно +22.1 +15.0 64 +26 +26 душно 1023.5 1023.1 +24.5
21 12.09 СВ 5 10 км ясно +21.7 +16.6 73 +26 +26 душно 1023.0 1022.6
00 13.09 СВ 6 10 км ясно +21.3 +15.0 67 +24 +24 комфорт 1022.6 1022.2
03 13.09 СВ 5 10 км ясно +19.5 +16.5 83 +21 +21 комфорт 1022.8 1022.4
06 13.09 СВ 5 10 км ясно +21.5 +15.2 67 +25 +27 комфорт 1023.6 1023.2 +19.3
09 13.09 В 6 10 км 1/0
[Ci fib]
+22.5 +15.3 64 +26 +31 жарко 1023.3 1022.9
12 13.09 СВ 4 10 км 1/0
[Ci fib]
+22.9 +17.9 73 +28 +34 душно 1022.7 1022.3
15 13.09 СВ 2 10 км 3/0
[Ci fib]
+22.6 +16.1 67 +27 +27 душно 1021.7 1021.3
18 13.09 С 1 10 км 3/0
[Ci fib]
+17.5 +15.6 89 +19 +19 1022.0 1021.6 +23.7
21 13.09 С 1 10 км ясно +16.7 +12.5 76 +18 +18 1021.9 1021.5
00 14.09 С 1 10 км ясно +15.1 +9.4 69 +16 +16 1021.1 1020.7
06 14.09 С 1 10 км ясно +21.2 +16.2 73 +25 +29 комфорт 1021.4 1021.0 +12.8
12 14.09 В 2 10 км 1/0
[Ci fib]
+26.4 +9.7 35 +27 +35 жарко 1019.2 1018.8
18 14.09 СЗ 2 10 км 9/0
[Cs]
+23.4 +10.9 45 +26 +26 жарко 1018.9 1018.5 +27.2
00 15.09 СВ 8 10 км ясно +18.2 +10.3 60 +18 +18 1021.0 1020.6
06 15.09 С 9 10 км ясно +18.1 +8.5 53 +17 +18 1023.9 1023.5 +16.8
12 15.09 СВ 3 10 км 1/0
[Ci fib]
+21.3 +3.7 31 +21 +28 комфорт 1023.1 1022.7
18 15.09 штиль 0 10 км ясно +14.3 +6.6 60 +14 +14 1022.6 1022.2 +21.9

 

Местоположение метеостанции Стрелковое (Херсонская область, Украина): широта 45.55 долгота 34.55 высота над уровнем моря 27 м.

В архиве по умолчанию представлена погода в Стрелковом за последнюю неделю. Архивные данные за месяц целиком и за предыдущие месяцы, начиная с января 2011 года, Вы можете получить, выбрав интересующий диапазон дат из раскрывающегося списка и нажав кнопку "Ввод!".


*Определитесь, кто Вы:
робот инопланетянин человек

Внимание! Время в таблицах - всемирное. Для получения местного времени необходимо прибавить поправку, которая равна 2 ч.

Смотрите также архив погоды в соседних городах и на ближайших метеорологических станциях:

Погода в Нижнегорском (Крым, Россия) (18 км)
Погода в Джанкое (Крым, Россия) (22 км)
Погода в Клепинино (Крым, Россия) (29 км)
Погода в Белогорске (Крым, Россия) (56 км)
Погода в Ишуни (Крым, Россия) (70 км)
Погода в Геническе (Херсонская область, Украина) (72 км)
Погода в Симферополе (Крым, Россия) (74 км)
Погода в Симферополе город (Крым, Россия) (75 км)
Погода в Владиславовке (Крым, Россия) (77 км)
Погода в Феодосии (Крым, Россия) (87 км)

Пояснения к столбцам:

Ветер - указаны скорость ветра в м/с - средняя за 10 мин, порывы в срок и между сроками (в фигурных скобках) и направление, откуда дует ветер: С - северный, СВ - северо-восточный, В - восточный, ЮВ - юго-восточный, Ю - южный, ЮЗ - юго-западный, З - западный, СЗ - северо-западный.
Видимость - горизонтальная дальность видимости в метрах или километрах. При видимости от 1 до 10 км при отсутствии осадков обычно наблюдается дымка, при ухудшении видимости до 1 км и менее - туман. В сухую погоду видимость может ухудшаться дымом, пылью или мглою.
Явления - указаны атмосферные явления, наблюдавшиеся в срок или в последний час перед сроком; фигурными скобками обозначены явления, наблюдавшиеся между сроками (за 1-3 часа до срока); квадратными скобками обозначены град или гололедные отложения с указанием их диаметра в мм.
Облачность - указаны через наклонную черту общая и нижняя облачность в баллах и высота нижней границы облаков в метрах; квадратными скобками обозначены формы облаков: Ci - перистые, Cs - перисто-слоистые, Cc - перисто-кучевые, Ac - высококучевые, As - высокослоистые, Sc - слоисто-кучевые, Ns - слоисто-дождевые, Cu - кучевые, Cb - кучево-дождевые. Подробнее классификацию облаков см. в Атласе облаков (PDF).
T - Температура воздуха - температура, измеренная на высоте 2 м над землей.
Td - Температура точки росы - температура, при понижении до которой содержащийся в воздухе водяной пар достигнет насыщения.
f - Относительная влажность воздуха - влажноcть воздуха, измеренная на высоте 2 м над землей.
Te - Эффективная температура - температура, которую ощущает одетый по сезону человек в тени. Характеристика душности погоды. При расчете учитывается влияние влажности воздуха и скорости ветра на теплоощущения человека.
Tes - Эффективная температура на солнце - температура, которую ощущает человек, с поправкой на солнечный нагрев. Характеристика знойности погоды. Зависит от высоты солнца над горизонтом, облачности и скорости ветра. Ночью, в пасмурную погоду, а также при ветре 12 м/с и более поправка равна нулю.
P - Атмосферное давление - приведенное к уровню моря атмосферное давление.
Po - Атмосферное давление - измеренное на уровне метеостанции атмосферное давление.
Tmin - Минимальная температура - минимум температуры воздуха на высоте 2 м над землей.
Tmax - Максимальная температура - максимум температуры воздуха на высоте 2 м над землей.
R - Количество осадков - Количество выпавших осадков за период времени, мм. При наведении курсора мыши на число - период времени, за который выпало указанное количество осадков.
R24 - Количество осадков - Количество выпавших осадков за 24 часа, мм.
S - Снежный покров - Высота снежного покрова, см. При наведении курсора мыши на число - состояние снежного покрова и степень покрытия местности в баллах.